Weather History for Redmond, OR

Change the Weather History Date:

Wednesday, August 20, 2014

  Actual Average Record
Temperature  
Mean Temperature 63 °F 64 °F  
Max Temperature 78 °F 84 °F 100 °F (2009)
Min Temperature 47 °F 45 °F 35 °F (1974)
Degree Days  
Heating Degree Days 2 3  
Month to date heating degree days 6 41  
Since 1 June heating degree days 260 327  
Since 1 July heating degree days 37 110  
Cooling Degree Days 0 2  
Month to date cooling degree days 96 63  
Year to date cooling degree days 290 189  
Since 1 June cooling degree days 290 184  
Growing Degree Days 14 (Base 50)    
Moisture  
Dew Point 44 °F    
Average Humidity 54    
Maximum Humidity 83    
Minimum Humidity 25    
Precipitation  
Precipitation 0.00 in 0.02 in 0.72 in (1993)
Month to date precipitation 0.90 0.32  
Year to date precipitation 4.94 5.55  
Sea Level Pressure  
Sea Level Pressure 29.87 in    
Wind  
Wind Speed 9 mph (WNW)    
Max Wind Speed 22 mph    
Max Gust Speed 27 mph    
Visibility 10 miles    
Events      
T = Trace of Precipitation, MM = Missing Value Source: NWS Daily Summary

Daily Weather History Graph

Daily Weather History Graph

Search for Another Location

Airport:

Trip Planner

Search our weather history database for the weather conditions in past years. The results will help you decide how hot, cold, wet, or windy it might be!

Date:

Astronomy

Aug. 20, 2014 Rise Set
Actual Time 6:13 AM PDT 8:01 PM PDT
Civil Twilight 5:42 AM PDT 8:32 PM PDT
Nautical Twilight 5:05 AM PDT 9:09 PM PDT
Astronomical Twilight 4:24 AM PDT 9:50 PM PDT
Moon 1:54 AM PDT (8/20) 4:54 PM PDT (8/20)
Length of Visible Light 14h 49m
Length of Day
13h 47m
Waning Crescent, 20% of the Moon is Illuminated
Aug 20
Waning Crescent
Aug 25
New
Sep 2
First Quarter
Sep 8
Full
Sep 15
Last Quarter

Hourly Weather History & Observations

Time (PDT) Temp. Dew Point Humidity Pressure Visibility Wind Dir Wind Speed Gust Speed Precip Events Conditions
12:56 AM 64.9 °F 51.1 °F 61% 29.81 in 10.0 mi WNW 9.2 mph - N/A   Clear
1:56 AM 62.1 °F 48.9 °F 62% 29.81 in 10.0 mi WSW 4.6 mph - N/A   Clear
2:56 AM 61.0 °F 50.0 °F 67% 29.81 in 10.0 mi SSW 5.8 mph - N/A   Clear
3:56 AM 59.0 °F 48.9 °F 69% 29.82 in 10.0 mi Calm Calm - N/A   Clear
4:56 AM 53.1 °F 46.9 °F 80% 29.83 in 10.0 mi SSE 3.5 mph - N/A   Clear
5:56 AM 51.1 °F 46.9 °F 86% 29.86 in 9.0 mi Variable 4.6 mph - N/A   Clear
6:56 AM 53.1 °F 48.0 °F 83% 29.87 in 8.0 mi SSE 4.6 mph - N/A   Clear
7:56 AM 63.0 °F 48.0 °F 58% 29.87 in 10.0 mi NNW 4.6 mph - N/A   Clear
8:56 AM 66.9 °F 46.9 °F 49% 29.88 in 10.0 mi WNW 11.5 mph 20.7 mph N/A   Clear
9:56 AM 66.9 °F 46.9 °F 49% 29.88 in 10.0 mi NW 10.4 mph - N/A   Scattered Clouds
10:56 AM 69.1 °F 46.9 °F 45% 29.88 in 10.0 mi WNW 13.8 mph - N/A   Partly Cloudy
11:56 AM 75.0 °F 46.9 °F 37% 29.86 in 10.0 mi NW 12.7 mph - N/A   Clear
12:56 PM 75.0 °F 46.0 °F 36% 29.86 in 10.0 mi WNW 12.7 mph 18.4 mph N/A   Clear
1:56 PM 77.0 °F 43.0 °F 30% 29.86 in 10.0 mi West 12.7 mph 23.0 mph N/A   Clear
2:56 PM 78.1 °F 41.0 °F 27% 29.85 in 10.0 mi NW 15.0 mph 21.9 mph N/A   Clear
3:56 PM 77.0 °F 41.0 °F 28% 29.84 in 10.0 mi WNW 18.4 mph 23.0 mph N/A   Clear
4:56 PM 75.9 °F 39.9 °F 27% 29.86 in 10.0 mi NW 15.0 mph 21.9 mph N/A   Clear
5:56 PM 75.0 °F 37.0 °F 25% 29.87 in 10.0 mi WNW 17.3 mph - N/A   Clear
6:56 PM 72.0 °F 37.0 °F 28% 29.89 in 10.0 mi WNW 13.8 mph - N/A   Clear
7:56 PM 66.9 °F 37.9 °F 34% 29.89 in 10.0 mi WNW 11.5 mph - N/A   Clear
8:56 PM 64.0 °F 39.9 °F 41% 29.91 in 10.0 mi NW 5.8 mph - N/A   Clear
9:56 PM 62.1 °F 42.1 °F 48% 29.93 in 10.0 mi NW 5.8 mph - N/A   Clear
10:56 PM 55.9 °F 41.0 °F 57% 29.95 in 10.0 mi North 3.5 mph - N/A   Clear
11:56 PM 46.9 °F 39.0 °F 74% 29.96 in 10.0 mi SSE 3.5 mph - N/A   Clear